Regional Weather Roundup
Issued by NWS

Home | Current Version | Previous Version | Graphics & Text | Print | Product List | Glossary On
Versions: 1 2 3 4 5 6 7 8 9 10 11 12 13 14 15 16 17 18 19 20 21 22 23 24 25 26 27 28 29 30 31 32 33 34 35 36 37 38 39 40 41 42 43 44 45 46 47 48 49 50
749
ASUS44 KJAN 250010
RWRMS

MISSISSIPPI HOURLY WEATHER ROUNDUP
NATIONAL WEATHER SERVICE JACKSON MS
700 PM CDT FRI OCT 24 2014

NOTE: "FAIR: INDICATES FEW OR NO CLOUDS BELOW 12,000 FEET WITH NO
SIGNIFICANT WEATHER AND/OR OBSTRUCTIONS TO VISIBILITY.

MSZ001>002-007>008-010>013-018>021-025>028-034>036-250100-
NORTHWEST MISSISSIPPI

CITY           SKY/WX    TMP DP  RH WIND       PRES   REMARKS
CLARKSDALE     FAIR      66  54  63 CALM      30.10R
CLEVELAND      FAIR      65  55  68 CALM      30.09S
GREENWOOD      CLEAR     58  53  84 CALM      30.10R
6HR MIN TEMP:  58; 6HR MAX TEMP:  74;

GREENVILLE     CLEAR     63  51  65 CALM      30.09F HAZE
6HR MIN TEMP:  63; 6HR MAX TEMP:  75;

GRENADA          N/A    N/A N/A N/A MISG        N/A
OLIVE BRANCH   PTCLDY    63  57  82 CALM      30.09S
OXFORD         FAIR      57  55  94 CALM      30.11R
TUNICA         CLEAR     64  54  68 SW6       30.10R
$$

MSZ003>006-009-014>017-022>024-029>033-037>039-250100-
NORTHEAST MISSISSIPPI

CITY           SKY/WX    TMP DP  RH WIND       PRES   REMARKS
COLUMBUS AFB   CLEAR     57  51  78 CALM      30.08R
6HR MIN TEMP:  57; 6HR MAX TEMP:  73; 6HR PCP: TRACE;

CORINTH        FAIR      61  54  77 CALM      30.08R
GOLDN TRIANGLE CLEAR     63  43  48 CALM      30.08R
STARKVILLE     FAIR      55  50  82 CALM      30.09R
TUPELO         CLEAR     62  51  67 CALM      30.08R
6HR MIN TEMP:  62; 6HR MAX TEMP:  73;

$$

MSZ040-058-250100-
CENTRAL MISSISSIPPI

CITY           SKY/WX    TMP DP  RH WIND       PRES   REMARKS
JACKSON INTL   PTCLDY    59  48  67 CALM      30.09R
6HR MIN TEMP:  59; 6HR MAX TEMP:  76;

JACKSON HAWKNS CLEAR     65  47  52 CALM      30.10R
6HR MIN TEMP:  65; 6HR MAX TEMP:  75;

MERIDIAN KEY   CLEAR     59  50  72 CALM      30.07R
6HR MIN TEMP:  59; 6HR MAX TEMP:  76;

MERIDIAN NAS   CLEAR     63  47  55 NW5       30.07R
6HR MIN TEMP:  63; 6HR MAX TEMP:  77;

RAYMOND        FAIR      57  52  82 CALM      30.10R
VICKSBURG      CLEAR     55  50  83 N5        30.10R
6HR MIN TEMP:  55; 6HR MAX TEMP:  75;

$$

MSZ059>079-250100-
SOUTH MISSISSIPPI

CITY           SKY/WX    TMP DP  RH WIND       PRES   REMARKS
BROOKHAVEN     FAIR      63  50  63 CALM      30.11R
COLUMBIA         N/A    N/A N/A N/A MISG        N/A
HATTIESBURG    CLEAR     60  51  72 NW3       30.07R
6HR MIN TEMP:  60; 6HR MAX TEMP:  76;

MCCOMB         CLEAR     63  48  58 N5        30.08R
6HR MIN TEMP:  63; 6HR MAX TEMP:  76;

NATCHEZ        CLEAR     61  48  63 CALM      30.10S
6HR MIN TEMP:  61; 6HR MAX TEMP:  72;

PINE BELT      CLEAR     57  46  67 NW6       30.09R
6HR MIN TEMP:  57; 6HR MAX TEMP:  75;

$$

MSZ080>082-250100-
COASTAL MISSISSIPPI

CITY           SKY/WX    TMP DP  RH WIND       PRES   REMARKS
BAY ST LOUIS   CLEAR     61  48  63 CALM      30.06R
BILOXI         CLEAR     70  49  48 N5        30.04R
6HR MIN TEMP:  70; 6HR MAX TEMP:  78;

PASCAGOULA     CLEAR     57  50  77 CALM      30.04R
6HR MIN TEMP:  56; 6HR MAX TEMP:  79;

GULFPORT       CLEAR     65  50  58 CALM      30.04R
6HR MIN TEMP:  65; 6HR MAX TEMP:  78;

$$



USA.gov is the U.S. government's official web portal to all federal, state and local government web resources and services.